DL9NDS-13 Weather Reports


time (UTC)temp
C
wind
direction
speed
KPH
gust
KPH
rain 1hr
cm
rain 24hr
cm
rain mn
cm
humidity
%
barometer
mb
20260506044705 11 241 0.0 4.8 0.00 1.04 0.03 92 1006.1
20260506044205 11 241 0.0 4.8 0.00 1.04 0.03 92 1006.0
20260506043705 11 241 1.6 4.8 0.00 1.04 0.03 92 1006.0
20260506043205 11 241 1.6 4.8 0.00 1.04 0.03 92 1006.0
20260506042205 11 242 0.0 6.4 0.00 1.04 0.03 92 1006.0
20260506041708 11 242 0.0 12.9 0.00 1.04 0.03 92 1005.8
20260506041205 11 242 1.6 12.9 0.00 1.04 0.03 92 1005.9
20260506040705 11 243 3.2 12.9 0.00 1.04 0.03 92 1005.8
20260506040205 11 262 1.6 6.4 0.03 1.04 0.03 92 1005.6
20260506035705 11 248 0.0 12.9 0.03 1.04 0.03 92 1005.7
20260506035205 11 248 3.2 12.9 0.03 1.04 0.03 92 1005.6
20260506034705 11 248 3.2 9.7 0.03 1.04 0.03 92 1005.7
20260506034207 11 242 0.0 0.0 0.03 1.04 0.03 92 1005.7
20260506034159 11 216 0.0 0.0 0.03 1.04 0.03 92 1005.6
20260506034119 11 222 0.0 0.0 0.03 1.04 0.03 92 1005.6
20260506032704 11 216 0.0 0.0 0.03 1.04 0.03 92 1005.6
20260506032205 11 216 0.0 0.0 0.03 1.04 0.03 92 1005.6
20260506031708 11 216 0.0 0.0 0.03 1.04 0.03 92 1005.6
20260506031205 11 216 0.0 0.0 0.03 1.04 0.03 92 1005.7
20260506030705 11 270 0.0 0.0 0.00 1.02 0.00 92 1005.7
20260506030205 11 270 0.0 0.0 0.00 1.02 0.00 92 1005.7
20260506025205 11 270 0.0 0.0 0.00 1.02 0.00 92 1005.7
20260506024705 11 270 0.0 0.0 0.00 1.02 0.00 92 1005.6
20260506024205 11 270 0.0 0.0 0.00 1.02 0.00 92 1005.7
20260506023208 11 270 0.0 0.0 0.00 1.02 0.00 92 1005.7
20260506022705 11 270 0.0 0.0 0.00 1.02 0.00 92 1005.7
20260506022205 11 270 0.0 0.0 0.00 1.02 0.00 92 1005.7
20260506021705 11 270 0.0 0.0 0.00 1.02 0.00 92 1005.7
20260506020705 11 270 0.0 0.0 0.00 1.02 0.00 92 1005.7
20260506020205 11 270 0.0 0.0 0.00 1.02 0.00 92 1005.7
20260506015704 11 270 0.0 0.0 0.00 1.02 0.00 92 1005.7
20260506015205 11 270 0.0 0.0 0.00 1.02 0.00 92 1005.6
20260506013705 11 270 0.0 0.0 0.00 1.02 0.00 92 1005.7
20260506013205 12 298 0.0 0.0 0.00 1.02 0.00 92 1005.8
20260506012705 12 298 0.0 0.0 0.00 1.02 0.00 92 1005.8
20260506012204 12 300 0.0 0.0 0.00 1.02 0.00 92 1006.0
20260506010705 12 304 0.0 0.0 0.00 1.02 0.00 92 1006.0
20260506010205 12 304 0.0 0.0 0.00 1.02 0.00 92 1006.0
20260506005705 12 304 0.0 0.0 0.00 1.02 0.00 92 1006.0
20260506005205 12 304 0.0 0.0 0.00 1.02 0.00 92 1006.1
20260506004705 12 304 0.0 0.0 0.00 1.02 0.00 92 1006.1
20260506004205 12 304 0.0 0.0 0.00 1.02 0.00 92 1006.2
20260506003705 12 304 0.0 0.0 0.00 1.02 0.00 92 1006.2
20260506002704 12 304 0.0 0.0 0.00 1.02 0.00 92 1006.3
20260506002205 12 304 0.0 0.0 0.00 1.02 0.00 92 1006.3
20260506001705 12 304 0.0 0.0 0.00 1.02 0.00 92 1006.3
20260506000705 12 304 0.0 0.0 0.00 1.02 0.00 92 1006.4
20260506000205 12 304 0.0 0.0 0.00 1.02 0.00 92 1006.4
20260505235704 12 304 0.0 0.0 0.00 1.02 0.00 92 1006.4
20260505235205 12 304 0.0 0.0 0.00 1.02 0.00 92 1006.4
20260505234705 12 304 0.0 0.0 0.00 1.02 0.00 92 1006.5
20260505234205 11 304 0.0 0.0 0.00 1.02 0.00 92 1006.5
20260505233705 11 304 0.0 0.0 0.00 1.02 0.00 92 1006.5
20260505233205 11 304 0.0 0.0 0.00 1.02 0.00 92 1006.5
20260505232729 11 304 0.0 0.0 0.00 1.02 0.00 92 1006.5
20260505231705 11 304 0.0 0.0 0.00 1.02 0.00 92 1006.6
20260505231205 11 304 0.0 0.0 0.00 1.02 0.00 92 1006.5
20260505230728 11 304 0.0 0.0 0.00 1.02 0.00 92 1006.5
20260505230205 11 304 0.0 0.0 0.00 1.02 0.00 92 1006.6
20260505225705 11 304 0.0 0.0 0.00 1.02 0.00 92 1006.6
20260505225205 11 304 0.0 0.0 0.00 1.02 0.00 92 1006.5
20260505224705 11 304 0.0 0.0 0.00 1.02 0.00 92 1006.5
20260505223705 11 304 0.0 0.0 0.00 1.02 0.00 92 1006.4
20260505222705 11 304 0.0 0.0 0.00 1.02 0.00 92 1006.5
20260505222205 11 304 0.0 0.0 0.00 1.02 0.00 92 1006.5
20260505221705 11 304 0.0 0.0 0.00 1.02 0.00 92 1006.5
20260505221205 11 304 0.0 0.0 0.00 1.02 0.00 92 1006.4
20260505220705 11 304 0.0 0.0 0.00 1.02 0.00 92 1006.4
20260505215705 11 304 0.0 0.0 0.00 1.02 1.02 92 1006.5
20260505215213 11 304 0.0 0.0 0.00 1.02 1.02 92 1006.3
20260505214705 11 304 0.0 0.0 0.00 1.02 1.02 92 1006.3
20260505214205 11 304 0.0 0.0 0.00 1.02 1.02 92 1006.4
20260505213705 12 304 0.0 0.0 0.00 1.02 1.02 92 1006.6
20260505213205 12 304 0.0 0.0 0.00 1.02 1.02 92 1006.5
20260505212705 12 304 0.0 0.0 0.00 1.02 1.02 92 1006.6
20260505212205 12 304 0.0 0.0 0.00 1.02 1.02 92 1006.6
20260505211705 12 304 0.0 0.0 0.00 1.02 1.02 92 1006.7
20260505211205 11 304 0.0 0.0 0.00 1.02 1.02 92 1006.7
20260505210705 11 304 0.0 0.0 0.00 1.02 1.02 92 1006.6
20260505210205 11 304 0.0 0.0 0.00 1.02 1.02 92 1006.5
20260505205705 11 304 0.0 0.0 0.00 1.02 1.02 91 1006.5
20260505205218 11 304 0.0 0.0 0.00 1.02 1.02 92 1006.7
20260505204705 12 304 0.0 0.0 0.00 1.02 1.02 92 1006.7
20260505204205 12 304 0.0 0.0 0.00 1.02 1.02 91 1006.7
20260505203708 12 304 0.0 0.0 0.00 1.02 1.02 91 1006.5
20260505203211 12 304 0.0 0.0 0.00 1.02 1.02 91 1006.5
20260505202705 12 304 0.0 0.0 0.00 1.02 1.02 91 1006.5
20260505202205 12 304 0.0 0.0 0.00 1.02 1.02 91 1006.5
20260505201705 12 304 0.0 0.0 0.00 1.02 1.02 92 1006.5
20260505201205 12 304 0.0 0.0 0.00 1.02 1.02 92 1006.3
20260505200705 12 304 0.0 0.0 0.00 1.02 1.02 92 1006.3
20260505200204 12 304 0.0 0.0 0.00 1.02 1.02 92 1006.3
20260505195705 12 304 0.0 0.0 0.00 1.02 1.02 91 1006.3
20260505194705 12 304 0.0 0.0 0.00 1.02 1.02 91 1006.2
20260505194205 12 336 0.0 0.0 0.00 1.02 1.02 91 1006.2
20260505193704 12 342 0.0 0.0 0.00 1.02 1.02 91 1006.1
20260505193205 12 345 0.0 0.0 0.00 1.02 1.02 91 1006.1
20260505192705 12 345 0.0 0.0 0.00 1.02 1.02 91 1006.0
20260505192205 12 345 0.0 0.0 0.00 1.02 1.02 91 1006.1
20260505191705 12 345 0.0 0.0 0.00 1.02 1.02 91 1006.0
20260505191208 12 345 0.0 0.0 0.00 1.02 1.02 91 1006.1
20260505190205 12 345 0.0 0.0 0.03 1.02 1.02 91 1006.2
20260505185205 12 345 0.0 0.0 0.05 1.02 1.02 91 1006.1
20260505184705 12 345 0.0 0.0 0.05 1.02 1.02 91 1006.0
20260505184205 12 345 0.0 0.0 0.08 1.02 1.02 91 1006.0
20260505183705 12 345 0.0 0.0 0.13 1.02 1.02 91 1006.1
20260505182705 12 345 0.0 0.0 0.18 1.02 1.02 91 1006.2
20260505182205 12 345 0.0 0.0 0.20 1.02 1.02 91 1006.2
20260505181705 13 345 0.0 0.0 0.23 1.02 1.02 91 1006.3
20260505181205 13 345 0.0 0.0 0.30 1.02 1.02 91 1006.3
20260505180705 13 345 0.0 0.0 0.51 1.02 1.02 91 1006.3
20260505175705 12 345 0.0 6.4 0.99 0.99 0.99 90 1006.6
20260505175205 12 345 0.0 6.4 0.97 0.97 0.97 90 1006.4
20260505174705 13 294 0.0 12.9 0.97 0.97 0.97 90 1006.4
20260505174229 12 261 1.6 16.1 0.91 0.91 0.91 90 1006.2
20260505173705 13 261 4.8 22.5 0.89 0.89 0.89 90 1006.0
20260505173205 13 265 6.4 29.0 0.86 0.86 0.86 90 1006.0
20260505172705 13 248 8.0 33.8 0.84 0.84 0.84 89 1005.9
20260505171705 13 249 16.1 46.7 0.79 0.79 0.79 89 1005.9
20260505171224 13 272 19.3 59.5 0.64 0.64 0.64 87 1005.9
20260505170704 14 277 25.7 59.5 0.23 0.23 0.23 83 1006.0
20260505170205 16 253 25.7 59.5 0.00 0.00 0.00 76 1006.4
20260505165705 18 228 11.3 33.8 0.00 0.00 0.00 67 1005.5
20260505165205 19 180 1.6 8.0 0.00 0.00 0.00 66 1004.5
20260505164705 19 30 1.6 12.9 0.00 0.00 0.00 64 1004.0
20260505163206 20 58 3.2 14.5 0.00 0.00 0.00 62 1003.7
20260505162705 20 32 3.2 17.7 0.00 0.00 0.00 61 1003.9
20260505162205 20 347 1.6 17.7 0.00 0.00 0.00 60 1004.1
20260505161705 20 59 3.2 17.7 0.00 0.00 0.00 60 1004.2
20260505161205 20 87 1.6 16.1 0.00 0.00 0.00 63 1004.3
20260505160705 20 34 3.2 20.9 0.00 0.00 0.00 63 1004.2
20260505153205 21 351 1.6 16.1 0.00 0.00 0.00 63 1004.4
20260505152705 21 13 3.2 16.1 0.00 0.00 0.00 62 1004.4
20260505152205 21 355 4.8 17.7 0.00 0.00 0.00 62 1004.4
20260505151205 20 22 9.7 17.7 0.00 0.00 0.00 62 1004.6
20260505150708 21 12 9.7 17.7 0.00 0.00 0.00 61 1004.6
20260505140205 21 14 3.2 16.1 0.00 0.00 0.00 58 1004.9
20260505130205 23 38 4.8 17.7 0.00 0.00 0.00 49 1005.2
20260505124705 24 297 8.0 17.7 0.00 0.00 0.00 49 1005.4
20260505124205 24 5 8.0 16.1 0.00 0.00 0.00 48 1005.5
20260505123205 23 340 3.2 14.5 0.00 0.00 0.00 53 1005.5
20260505122205 22 321 1.6 9.7 0.00 0.00 0.00 52 1005.6
20260505121705 22 316 1.6 11.3 0.00 0.00 0.00 50 1005.7
20260505120233 23 49 3.2 12.9 0.00 0.00 0.00 48 1005.8
20260505115705 23 13 1.6 12.9 0.00 0.00 0.00 51 1005.9
20260505115205 23 260 1.6 12.9 0.00 0.00 0.00 53 1005.9
20260505114705 23 309 3.2 12.9 0.00 0.00 0.00 50 1006.0
20260505114205 23 309 3.2 9.7 0.00 0.00 0.00 49 1006.1
20260505113705 23 26 3.2 9.7 0.00 0.00 0.00 49 1006.1
20260505113205 23 37 1.6 11.3 0.00 0.00 0.00 48 1006.1
20260505112205 22 40 1.6 11.3 0.00 0.00 0.00 49 1006.3
20260505111705 22 5 1.6 4.8 0.00 0.00 0.00 50 1006.3
20260505111205 22 278 0.0 9.7 0.00 0.00 0.00 49 1006.3
20260505110705 22 323 0.0 9.7 0.00 0.00 0.00 50 1006.4
20260505110205 22 324 1.6 14.5 0.00 0.00 0.00 53 1006.4
20260505102204 22 13 3.2 16.1 0.00 0.00 0.00 52 1006.8
20260505101705 22 330 4.8 12.9 0.00 0.00 0.00 54 1006.9
20260505101205 22 342 3.2 12.9 0.00 0.00 0.00 56 1006.9
20260505100205 22 319 1.6 11.3 0.00 0.00 0.00 59 1007.0
20260505095705 22 323 1.6 12.9 0.00 0.00 0.00 59 1007.2
20260505095205 21 281 1.6 16.1 0.00 0.00 0.00 64 1007.1
20260505094205 21 340 3.2 16.1 0.00 0.00 0.00 64 1007.3
20260505093705 21 286 1.6 8.0 0.00 0.00 0.00 65 1007.3
20260505093205 21 340 1.6 8.0 0.00 0.00 0.00 64 1007.4
20260505092705 21 344 1.6 12.9 0.00 0.00 0.00 64 1007.4
20260505092205 21 319 1.6 12.9 0.00 0.00 0.00 65 1007.5
20260505091705 20 288 1.6 12.9 0.00 0.00 0.00 69 1007.6
20260505091231 20 313 0.0 9.7 0.00 0.00 0.00 68 1007.6
20260505090705 20 294 0.0 12.9 0.00 0.00 0.00 67 1007.6
20260505090205 20 291 1.6 14.5 0.00 0.00 0.00 67 1007.7
20260505085705 20 340 4.8 14.5 0.00 0.00 0.00 65 1007.7
20260505085205 20 355 4.8 12.9 0.00 0.00 0.00 63 1007.7
20260505084705 21 348 3.2 9.7 0.00 0.00 0.00 63 1007.7
20260505083705 21 338 1.6 9.7 0.00 0.00 0.00 65 1007.8
20260505083205 21 113 1.6 4.8 0.00 0.00 0.00 63 1007.8
20260505082704 20 355 0.0 4.8 0.00 0.00 0.00 61 1007.9
20260505082205 20 53 0.0 4.8 0.00 0.00 0.00 68 1008.0
20260505081705 20 57 0.0 4.8 0.00 0.00 0.00 66 1008.1
20260505081205 20 58 0.0 4.8 0.00 0.00 0.00 66 1008.1
20260505080705 20 14 0.0 4.8 0.00 0.00 0.00 68 1008.1
20260505080205 19 14 0.0 12.9 0.00 0.00 0.00 69 1008.1
20260505075705 19 102 3.2 12.9 0.00 0.00 0.00 68 1008.1
20260505075206 19 58 3.2 12.9 0.00 0.00 0.00 68 1008.2
20260505074705 19 5 1.6 8.0 0.00 0.00 0.00 71 1008.2
20260505074205 19 27 0.0 6.4 0.00 0.00 0.00 71 1008.2
20260505073704 18 27 0.0 0.0 0.00 0.00 0.00 70 1008.3
20260505073205 18 36 0.0 8.0 0.00 0.00 0.00 71 1008.3
20260505072705 18 5 1.6 8.0 0.00 0.00 0.00 74 1008.4
20260505072205 18 355 1.6 8.0 0.00 0.00 0.00 73 1008.5
20260505071705 18 11 1.6 6.4 0.00 0.00 0.00 73 1008.5
20260505071205 17 63 0.0 6.4 0.00 0.00 0.00 75 1008.5
20260505070705 17 17 1.6 6.4 0.00 0.00 0.00 75 1008.5
20260505070224 17 96 0.0 4.8 0.00 0.00 0.00 75 1008.7
20260505065705 17 87 0.0 3.2 0.00 0.00 0.00 77 1008.7
20260505065205 17 134 0.0 3.2 0.00 0.00 0.00 78 1008.7
20260505064705 16 135 0.0 1.6 0.00 0.00 0.00 79 1008.7
20260505063205 16 32 0.0 0.0 0.00 0.00 0.00 79 1008.7
20260505062708 16 13 0.0 0.0 0.00 0.00 0.00 81 1008.7
20260505062205 16 13 0.0 6.4 0.00 0.00 0.00 81 1008.8
20260505061705 16 13 0.0 6.4 0.00 0.00 0.00 80 1008.8
20260505061205 16 14 1.6 6.4 0.00 0.00 0.00 81 1008.8
20260505060208 15 104 0.0 0.0 0.00 0.00 0.00 83 1008.8
20260505055705 15 107 0.0 0.0 0.00 0.00 0.00 86 1008.8
20260505055205 15 10 0.0 0.0 0.00 0.00 0.00 87 1008.9
20260505054705 14 10 0.0 1.6 0.00 0.00 0.00 87 1008.9
20260505054205 14 10 0.0 1.6 0.00 0.00 0.00 87 1008.8
20260505053205 14 63 0.0 6.4 0.00 0.00 0.00 89 1008.9
20260505052705 13 63 0.0 6.4 0.00 0.00 0.00 89 1008.8
20260505052205 13 63 0.0 1.6 0.00 0.00 0.00 90 1008.8
20260505051227 13 46 0.0 8.0 0.00 0.00 0.00 91 1008.8
20260505050705 12 46 0.0 0.0 0.00 0.00 0.00 91 1008.7
20260505050216 12 302 0.0 0.0 0.00 0.00 0.00 91 1008.8